Tracking 31027 objects as of 19-Jul-2025
HD Live streaming from Space Station
objects crossing your sky now

FENGYUN 1C DEB

Track FENGYUN 1C DEB now!
10-day predictions


NORAD ID: 31302
Int'l Code: 1999-025BPL
Perigee: 789.9 km
Apogee: 832.5 km
Inclination: 99.4 °
Period: 101.0 minutes
Semi major axis: 7182 km
RCS: 0.011 m2 (small)
Launch date: May 10, 1999
Source: People's Republic of China (PRC)
Launch site: Taiyaun Space Center, China (TSC)

Note: This is SATELLITE DEBRIS
Your satellite tracking list
STARLINK-3674
Track 1 satellite(s)




NASA's NSSDC Master Catalog

Two Line Element Set (TLE):
1 31302U 99025BPL 25199.06627000  .00002121  00000-0  90018-3 0  9998
2 31302  99.4211 229.9178 0029649 114.2919 303.1528 14.26313212942521
Source of the keplerian elements: AFSPC